Time,TemperatureF,DewpointF,PressureIn,WindDirection,WindDirectionDegrees,WindSpeedMPH,WindSpeedGustMPH,Humidity,HourlyPrecipIn,Conditions,Clouds,dailyrainin,SoftwareType,DateUTC
2013-06-08 00:01:00,54.1,53.3,29.83,SW,219,0.0,1.0,97,0.11,,,0.00,WeatherCatV1.15B25,2013-06-08 04:01:00,
2013-06-08 00:06:00,54.1,53.3,29.83,West,259,0.0,3.0,97,0.22,,,0.03,WeatherCatV1.15B25,2013-06-08 04:06:00,
2013-06-08 00:11:00,54.1,53.3,29.83,SE,145,0.0,1.0,97,0.24,,,0.06,WeatherCatV1.15B25,2013-06-08 04:11:00,
2013-06-08 00:16:00,54.1,53.3,29.82,ESE,121,1.0,3.0,97,0.13,,,0.07,WeatherCatV1.15B25,2013-06-08 04:16:00,
2013-06-08 00:21:00,54.1,53.3,29.82,ESE,110,0.0,1.0,97,0.36,,,0.08,WeatherCatV1.15B25,2013-06-08 04:21:00,
2013-06-08 00:26:00,54.1,53.3,29.82,North,356,1.0,4.0,97,0.12,,,0.09,WeatherCatV1.15B25,2013-06-08 04:26:00,
2013-06-08 00:31:00,54.1,53.3,29.82,NE,39,0.0,1.0,97,0.35,,,0.13,WeatherCatV1.15B25,2013-06-08 04:31:00,
2013-06-08 00:36:00,54.0,53.2,29.82,SE,143,0.0,1.0,97,0.35,,,0.15,WeatherCatV1.15B25,2013-06-08 04:36:00,
2013-06-08 00:41:00,54.0,53.2,29.81,SSW,201,0.0,3.0,97,0.10,,,0.15,WeatherCatV1.15B25,2013-06-08 04:41:00,
2013-06-08 00:46:00,54.0,53.2,29.80,NNE,13,1.0,2.0,97,0.06,,,0.16,WeatherCatV1.15B25,2013-06-08 04:46:00,
2013-06-08 00:51:00,54.0,53.2,29.80,NE,38,1.0,1.0,97,0.10,,,0.16,WeatherCatV1.15B25,2013-06-08 04:51:00,
2013-06-08 00:56:00,54.0,53.2,29.80,SW,222,0.0,1.0,97,0.27,,,0.19,WeatherCatV1.15B25,2013-06-08 04:56:00,
2013-06-08 01:01:00,54.0,53.2,29.80,SSW,204,1.0,2.0,97,0.09,,,0.20,WeatherCatV1.15B25,2013-06-08 05:01:00,
2013-06-08 01:06:00,54.0,53.2,29.79,SSE,149,1.0,6.0,97,0.35,,,0.26,WeatherCatV1.15B25,2013-06-08 05:06:00,
2013-06-08 01:11:00,53.9,53.1,29.79,SSW,212,0.0,1.0,97,0.13,,,0.27,WeatherCatV1.15B25,2013-06-08 05:11:00,
2013-06-08 01:16:00,53.9,53.1,29.80,SSW,204,1.0,2.0,97,0.06,,,0.27,WeatherCatV1.15B25,2013-06-08 05:16:00,
2013-06-08 01:21:00,53.8,53.0,29.79,SE,129,1.0,2.0,97,1.06,,,0.34,WeatherCatV1.15B25,2013-06-08 05:21:00,
2013-06-08 01:26:00,53.8,53.0,29.79,SW,222,0.0,2.0,97,0.34,,,0.39,WeatherCatV1.15B25,2013-06-08 05:26:00,
2013-06-08 01:31:00,53.8,53.0,29.79,SW,234,0.0,0.0,97,0.12,,,0.40,WeatherCatV1.15B25,2013-06-08 05:31:00,
2013-06-08 01:36:00,53.8,53.0,29.78,SSE,153,1.0,3.0,97,0.12,,,0.41,WeatherCatV1.15B25,2013-06-08 05:36:00,
2013-06-08 01:38:00,53.8,53.0,29.77,SSW,201,1.0,3.0,97,0.12,,,0.41,WeatherCatV1.15B25,2013-06-08 05:38:00,
2013-06-08 01:43:00,53.8,53.0,29.77,SE,143,0.0,1.0,97,0.09,,,0.41,WeatherCatV1.15B25,2013-06-08 05:43:00,
2013-06-08 01:48:00,53.7,52.9,29.77,South,188,2.0,2.0,97,0.30,,,0.45,WeatherCatV1.15B25,2013-06-08 05:48:00,
2013-06-08 01:53:00,53.7,52.9,29.77,NW,321,1.0,3.0,97,0.11,,,0.45,WeatherCatV1.15B25,2013-06-08 05:53:00,
2013-06-08 01:58:00,53.7,52.9,29.76,North,11,2.0,6.0,97,0.06,,,0.45,WeatherCatV1.15B25,2013-06-08 05:58:00,
2013-06-08 02:03:00,53.7,52.9,29.76,WNW,288,1.0,2.0,97,0.06,,,0.46,WeatherCatV1.15B25,2013-06-08 06:03:00,
2013-06-08 02:08:00,53.7,52.9,29.76,SW,214,3.0,3.0,97,0.06,,,0.46,WeatherCatV1.15B25,2013-06-08 06:08:00,
2013-06-08 02:13:00,53.7,52.9,29.79,SW,215,0.0,3.0,97,0.04,,,0.46,WeatherCatV1.15B25,2013-06-08 06:13:00,
2013-06-08 02:18:00,53.7,52.9,29.77,SSW,198,0.0,2.0,97,0.69,,,0.50,WeatherCatV1.15B25,2013-06-08 06:18:00,
2013-06-08 02:23:00,53.7,52.9,29.76,SE,124,0.0,3.0,97,0.20,,,0.53,WeatherCatV1.15B25,2013-06-08 06:23:00,
2013-06-08 02:28:00,53.6,52.8,29.75,SSW,208,1.0,3.0,97,0.23,,,0.55,WeatherCatV1.15B25,2013-06-08 06:28:00,
2013-06-08 02:33:00,53.6,52.8,29.75,SSW,204,0.0,1.0,97,0.08,,,0.55,WeatherCatV1.15B25,2013-06-08 06:33:00,
2013-06-08 02:38:00,53.6,52.8,29.74,ENE,61,0.0,4.0,97,0.07,,,0.56,WeatherCatV1.15B25,2013-06-08 06:38:00,
2013-06-08 02:43:00,53.6,52.8,29.74,SSE,160,0.0,1.0,97,0.06,,,0.56,WeatherCatV1.15B25,2013-06-08 06:43:00,
2013-06-08 02:48:00,53.6,52.8,29.73,South,184,0.0,1.0,97,0.04,,,0.56,WeatherCatV1.15B25,2013-06-08 06:48:00,
2013-06-08 02:53:00,53.6,52.8,29.73,SSW,200,1.0,1.0,97,0.00,,,0.56,WeatherCatV1.15B25,2013-06-08 06:53:00,
2013-06-08 02:58:00,53.7,52.9,29.72,West,276,0.0,3.0,97,0.00,,,0.57,WeatherCatV1.15B25,2013-06-08 06:58:00,
2013-06-08 03:03:00,53.7,52.9,29.72,SSE,166,5.0,5.0,97,0.00,,,0.57,WeatherCatV1.15B25,2013-06-08 07:03:00,
2013-06-08 03:08:00,53.8,53.0,29.72,SE,145,0.0,1.0,97,0.05,,,0.57,WeatherCatV1.15B25,2013-06-08 07:08:00,
2013-06-08 03:13:00,53.8,53.0,29.72,SSW,200,0.0,1.0,97,0.05,,,0.58,WeatherCatV1.15B25,2013-06-08 07:13:00,
2013-06-08 03:18:00,53.8,53.0,29.72,NNW,328,2.0,3.0,97,0.98,,,0.63,WeatherCatV1.15B25,2013-06-08 07:18:00,
2013-06-08 03:23:00,53.9,53.1,29.71,WSW,243,0.0,2.0,97,0.13,,,0.64,WeatherCatV1.15B25,2013-06-08 07:23:00,
2013-06-08 03:28:00,53.9,53.1,29.71,North,354,1.0,2.0,97,0.06,,,0.64,WeatherCatV1.15B25,2013-06-08 07:28:00,
2013-06-08 03:33:00,54.0,53.2,29.70,SW,236,0.0,1.0,97,0.04,,,0.64,WeatherCatV1.15B25,2013-06-08 07:33:00,
2013-06-08 03:38:00,54.0,53.2,29.70,East,87,1.0,2.0,97,0.00,,,0.64,WeatherCatV1.15B25,2013-06-08 07:38:00,
2013-06-08 03:43:00,54.0,53.2,29.70,North,6,0.0,2.0,97,0.00,,,0.64,WeatherCatV1.15B25,2013-06-08 07:43:00,
2013-06-08 03:48:00,54.1,53.3,29.70,SW,231,0.0,3.0,97,0.00,,,0.64,WeatherCatV1.15B25,2013-06-08 07:48:00,
2013-06-08 03:53:00,54.0,53.2,29.70,SSE,160,0.0,4.0,97,0.00,,,0.64,WeatherCatV1.15B25,2013-06-08 07:53:00,
2013-06-08 03:58:00,54.0,53.2,29.70,SW,222,0.0,0.0,97,0.00,,,0.65,WeatherCatV1.15B25,2013-06-08 07:58:00,
2013-06-08 04:03:00,54.0,53.2,29.70,SSW,212,0.0,2.0,97,0.33,,,0.67,WeatherCatV1.15B25,2013-06-08 08:03:00,
2013-06-08 04:08:00,54.0,53.2,29.69,West,266,0.0,1.0,97,0.26,,,0.69,WeatherCatV1.15B25,2013-06-08 08:08:00,
2013-06-08 04:13:00,54.0,53.2,29.69,SSW,203,0.0,0.0,97,0.14,,,0.70,WeatherCatV1.15B25,2013-06-08 08:13:00,
2013-06-08 04:18:00,54.0,53.2,29.69,SSW,203,0.0,0.0,97,0.13,,,0.71,WeatherCatV1.15B25,2013-06-08 08:18:00,
2013-06-08 04:23:00,54.0,53.2,29.68,NNW,331,0.0,1.0,97,0.07,,,0.71,WeatherCatV1.15B25,2013-06-08 08:23:00,
2013-06-08 04:28:00,54.0,53.2,29.68,SSE,157,1.0,1.0,97,0.05,,,0.71,WeatherCatV1.15B25,2013-06-08 08:28:00,
2013-06-08 04:33:00,54.0,53.2,29.67,NE,38,0.0,0.0,97,0.00,,,0.71,WeatherCatV1.15B25,2013-06-08 08:33:00,
2013-06-08 04:38:00,54.0,53.2,29.67,West,280,0.0,0.0,97,0.00,,,0.71,WeatherCatV1.15B25,2013-06-08 08:38:00,
2013-06-08 04:43:00,54.0,53.2,29.67,SW,214,1.0,3.0,97,0.00,,,0.71,WeatherCatV1.15B25,2013-06-08 08:43:00,
2013-06-08 04:48:00,54.0,53.2,29.67,SSW,197,0.0,4.0,97,0.00,,,0.71,WeatherCatV1.15B25,2013-06-08 08:48:00,
2013-06-08 04:53:00,54.0,53.2,29.66,ENE,67,0.0,3.0,97,0.00,,,0.71,WeatherCatV1.15B25,2013-06-08 08:53:00,
2013-06-08 04:58:00,54.0,53.2,29.66,NNW,333,1.0,2.0,97,0.00,,,0.71,WeatherCatV1.15B25,2013-06-08 08:58:00,
2013-06-08 05:03:00,53.9,53.1,29.66,WNW,284,0.0,2.0,97,0.00,,,0.71,WeatherCatV1.15B25,2013-06-08 09:03:00,
2013-06-08 05:08:00,53.9,53.1,29.66,SW,232,1.0,2.0,97,0.00,,,0.71,WeatherCatV1.15B25,2013-06-08 09:08:00,
2013-06-08 05:13:00,53.9,53.1,29.66,SSW,204,0.0,2.0,97,0.00,,,0.71,WeatherCatV1.15B25,2013-06-08 09:13:00,
2013-06-08 05:18:00,53.9,53.1,29.66,NNE,23,0.0,4.0,97,0.00,,,0.71,WeatherCatV1.15B25,2013-06-08 09:18:00,
2013-06-08 05:23:00,53.9,53.1,29.65,SE,135,1.0,3.0,97,0.00,,,0.71,WeatherCatV1.15B25,2013-06-08 09:23:00,
2013-06-08 05:28:00,53.9,53.1,29.65,WSW,250,2.0,2.0,97,0.00,,,0.71,WeatherCatV1.15B25,2013-06-08 09:28:00,
2013-06-08 05:33:00,53.9,53.1,29.65,NE,37,1.0,5.0,97,0.00,,,0.71,WeatherCatV1.15B25,2013-06-08 09:33:00,
2013-06-08 05:38:00,53.8,53.0,29.65,North,11,1.0,4.0,97,0.00,,,0.71,WeatherCatV1.15B25,2013-06-08 09:38:00,
2013-06-08 05:43:00,53.8,53.0,29.65,NNE,19,1.0,3.0,97,0.00,,,0.71,WeatherCatV1.15B25,2013-06-08 09:43:00,
2013-06-08 05:48:00,53.8,53.0,29.65,SSE,165,0.0,3.0,97,0.00,,,0.72,WeatherCatV1.15B25,2013-06-08 09:48:00,
2013-06-08 05:53:00,53.8,53.0,29.65,WSW,250,2.0,4.0,97,0.00,,,0.72,WeatherCatV1.15B25,2013-06-08 09:53:00,
2013-06-08 05:58:00,53.8,53.0,29.64,South,186,3.0,4.0,97,0.07,,,0.73,WeatherCatV1.15B25,2013-06-08 09:58:00,
2013-06-08 06:03:00,53.8,53.0,29.64,WSW,245,0.0,2.0,97,0.13,,,0.74,WeatherCatV1.15B25,2013-06-08 10:03:00,
2013-06-08 06:08:00,53.9,53.1,29.64,North,5,1.0,4.0,97,0.09,,,0.75,WeatherCatV1.15B25,2013-06-08 10:08:00,
2013-06-08 06:13:00,53.9,53.1,29.64,WNW,302,0.0,1.0,97,0.08,,,0.75,WeatherCatV1.15B25,2013-06-08 10:13:00,
2013-06-08 06:18:00,53.9,53.1,29.64,NNW,333,0.0,2.0,97,0.05,,,0.75,WeatherCatV1.15B25,2013-06-08 10:18:00,
2013-06-08 06:23:00,54.0,53.2,29.64,SE,145,0.0,2.0,97,0.04,,,0.75,WeatherCatV1.15B25,2013-06-08 10:23:00,
2013-06-08 06:28:00,54.0,53.2,29.64,NNW,333,0.0,11.0,97,0.00,,,0.75,WeatherCatV1.15B25,2013-06-08 10:28:00,
2013-06-08 06:33:00,54.1,53.3,29.63,South,183,1.0,3.0,97,0.00,,,0.76,WeatherCatV1.15B25,2013-06-08 10:33:00,
2013-06-08 06:38:00,54.1,53.3,29.63,SSW,211,1.0,3.0,97,0.00,,,0.76,WeatherCatV1.15B25,2013-06-08 10:38:00,
2013-06-08 06:43:00,54.1,53.3,29.63,North,357,1.0,7.0,97,0.00,,,0.76,WeatherCatV1.15B25,2013-06-08 10:43:00,
2013-06-08 06:48:00,54.2,53.4,29.63,NNW,331,1.0,2.0,97,0.00,,,0.76,WeatherCatV1.15B25,2013-06-08 10:48:00,
2013-06-08 06:53:00,54.2,53.4,29.63,SSW,208,0.0,7.0,97,0.00,,,0.76,WeatherCatV1.15B25,2013-06-08 10:53:00,
2013-06-08 06:58:00,54.3,53.5,29.63,SW,218,1.0,2.0,97,0.00,,,0.77,WeatherCatV1.15B25,2013-06-08 10:58:00,
2013-06-08 07:03:00,54.4,53.6,29.63,WSW,255,1.0,2.0,97,0.00,,,0.77,WeatherCatV1.15B25,2013-06-08 11:03:00,
2013-06-08 07:08:00,54.5,53.7,29.63,WSW,248,2.0,5.0,97,0.00,,,0.77,WeatherCatV1.15B25,2013-06-08 11:08:00,
2013-06-08 07:13:00,54.6,53.8,29.63,SSW,211,1.0,7.0,97,0.00,,,0.77,WeatherCatV1.15B25,2013-06-08 11:13:00,
2013-06-08 07:18:00,54.7,53.9,29.63,SSW,205,1.0,3.0,97,0.00,,,0.77,WeatherCatV1.15B25,2013-06-08 11:18:00,
2013-06-08 07:23:00,54.7,53.9,29.64,SW,229,3.0,3.0,97,0.00,,,0.77,WeatherCatV1.15B25,2013-06-08 11:23:00,
2013-06-08 07:28:00,54.8,54.0,29.64,SSW,203,0.0,6.0,97,0.00,,,0.77,WeatherCatV1.15B25,2013-06-08 11:28:00,
2013-06-08 07:33:00,54.9,54.1,29.64,SW,218,1.0,2.0,97,0.00,,,0.77,WeatherCatV1.15B25,2013-06-08 11:33:00,
2013-06-08 07:38:00,54.9,54.1,29.64,NNE,32,1.0,2.0,97,0.00,,,0.77,WeatherCatV1.15B25,2013-06-08 11:38:00,
2013-06-08 07:43:00,54.9,54.1,29.64,North,349,1.0,5.0,97,0.00,,,0.77,WeatherCatV1.15B25,2013-06-08 11:43:00,
2013-06-08 07:48:00,54.9,54.1,29.64,SSW,203,0.0,2.0,97,0.00,,,0.77,WeatherCatV1.15B25,2013-06-08 11:48:00,
2013-06-08 07:53:00,55.2,54.4,29.64,SSW,204,1.0,4.0,97,0.00,,,0.77,WeatherCatV1.15B25,2013-06-08 11:53:00,
2013-06-08 07:58:00,55.4,54.6,29.65,SW,229,2.0,3.0,97,0.00,,,0.77,WeatherCatV1.15B25,2013-06-08 11:58:00,
2013-06-08 08:03:00,55.4,54.6,29.65,SSW,193,2.0,3.0,97,0.00,,,0.77,WeatherCatV1.15B25,2013-06-08 12:03:00,
2013-06-08 08:08:00,55.5,54.7,29.65,SW,221,2.0,2.0,97,0.00,,,0.77,WeatherCatV1.15B25,2013-06-08 12:08:00,
2013-06-08 08:13:00,55.6,54.8,29.65,SSE,148,3.0,3.0,97,0.00,,,0.77,WeatherCatV1.15B25,2013-06-08 12:13:00,
2013-06-08 08:18:00,55.8,55.0,29.65,WSW,239,0.0,5.0,97,0.00,,,0.77,WeatherCatV1.15B25,2013-06-08 12:18:00,
2013-06-08 08:23:00,55.9,55.1,29.65,WSW,243,0.0,2.0,97,0.00,,,0.77,WeatherCatV1.15B25,2013-06-08 12:23:00,
2013-06-08 08:28:00,56.1,55.3,29.66,WSW,245,0.0,5.0,97,0.00,,,0.77,WeatherCatV1.15B25,2013-06-08 12:28:00,
2013-06-08 08:33:00,56.2,55.1,29.67,SSW,195,2.0,2.0,96,0.00,,,0.77,WeatherCatV1.15B25,2013-06-08 12:33:00,
2013-06-08 08:38:00,56.3,55.5,29.67,SSW,212,1.0,2.0,97,0.00,,,0.77,WeatherCatV1.15B25,2013-06-08 12:38:00,
2013-06-08 08:43:00,56.4,55.3,29.68,SW,215,1.0,3.0,96,0.00,,,0.77,WeatherCatV1.15B25,2013-06-08 12:43:00,
2013-06-08 08:48:00,56.4,55.3,29.69,NW,309,1.0,6.0,96,0.00,,,0.77,WeatherCatV1.15B25,2013-06-08 12:48:00,
2013-06-08 08:53:00,56.5,55.4,29.70,South,188,0.0,3.0,96,0.00,,,0.77,WeatherCatV1.15B25,2013-06-08 12:53:00,
2013-06-08 08:58:00,56.6,55.5,29.70,North,7,0.0,5.0,96,0.00,,,0.77,WeatherCatV1.15B25,2013-06-08 12:58:00,
2013-06-08 09:03:00,56.6,55.5,29.71,SSW,194,2.0,4.0,96,0.00,,,0.77,WeatherCatV1.15B25,2013-06-08 13:03:00,
2013-06-08 09:08:00,56.7,55.6,29.71,SW,236,0.0,1.0,96,0.00,,,0.77,WeatherCatV1.15B25,2013-06-08 13:08:00,
2013-06-08 09:13:00,56.7,55.6,29.72,SSW,195,1.0,3.0,96,0.00,,,0.77,WeatherCatV1.15B25,2013-06-08 13:13:00,
2013-06-08 09:18:00,56.9,55.8,29.72,SSW,211,2.0,2.0,96,0.00,,,0.77,WeatherCatV1.15B25,2013-06-08 13:18:00,
2013-06-08 09:23:00,57.1,56.0,29.72,WSW,238,2.0,2.0,96,0.00,,,0.77,WeatherCatV1.15B25,2013-06-08 13:23:00,
2013-06-08 09:28:00,57.2,56.1,29.72,SSW,207,1.0,2.0,96,0.00,,,0.77,WeatherCatV1.15B25,2013-06-08 13:28:00,
2013-06-08 09:33:00,57.4,56.3,29.73,NNE,18,1.0,2.0,96,0.00,,,0.77,WeatherCatV1.15B25,2013-06-08 13:33:00,
2013-06-08 09:38:00,57.6,56.5,29.73,SSW,209,0.0,3.0,96,0.00,,,0.77,WeatherCatV1.15B25,2013-06-08 13:38:00,
2013-06-08 09:43:00,57.9,56.8,29.73,SSW,195,4.0,4.0,96,0.00,,,0.77,WeatherCatV1.15B25,2013-06-08 13:43:00,
2013-06-08 09:48:00,58.1,56.7,29.73,WSW,248,1.0,2.0,95,0.00,,,0.77,WeatherCatV1.15B25,2013-06-08 13:48:00,
2013-06-08 09:53:00,58.4,57.0,29.74,SSW,203,2.0,3.0,95,0.00,,,0.77,WeatherCatV1.15B25,2013-06-08 13:53:00,
2013-06-08 09:58:00,58.7,57.3,29.74,NNW,335,0.0,3.0,95,0.00,,,0.77,WeatherCatV1.15B25,2013-06-08 13:58:00,
2013-06-08 10:03:00,59.1,57.7,29.74,WSW,251,1.0,4.0,95,0.00,,,0.77,WeatherCatV1.15B25,2013-06-08 14:03:00,
2013-06-08 10:08:00,59.2,57.2,29.74,SSW,209,2.0,4.0,93,0.00,,,0.77,WeatherCatV1.15B25,2013-06-08 14:08:00,
2013-06-08 10:13:00,59.5,57.5,29.75,West,259,1.0,2.0,93,0.00,,,0.77,WeatherCatV1.15B25,2013-06-08 14:13:00,
2013-06-08 10:18:00,59.8,57.5,29.74,NW,322,0.0,5.0,92,0.00,,,0.77,WeatherCatV1.15B25,2013-06-08 14:18:00,
2013-06-08 10:23:00,60.2,57.9,29.75,SW,217,2.0,4.0,92,0.00,,,0.77,WeatherCatV1.15B25,2013-06-08 14:23:00,
2013-06-08 10:28:00,60.5,58.2,29.75,SSE,159,2.0,2.0,92,0.00,,,0.77,WeatherCatV1.15B25,2013-06-08 14:28:00,
2013-06-08 10:33:00,60.7,57.7,29.75,SSW,195,0.0,9.0,90,0.00,,,0.77,WeatherCatV1.15B25,2013-06-08 14:33:00,
2013-06-08 10:38:00,60.7,58.1,29.75,SW,219,1.0,3.0,91,0.00,,,0.77,WeatherCatV1.15B25,2013-06-08 14:38:00,
2013-06-08 10:43:00,61.1,58.8,29.76,South,179,2.0,3.0,92,0.00,,,0.77,WeatherCatV1.15B25,2013-06-08 14:43:00,
2013-06-08 10:48:00,61.4,58.1,29.76,SSW,200,3.0,6.0,89,0.00,,,0.77,WeatherCatV1.15B25,2013-06-08 14:48:00,
2013-06-08 10:53:00,61.8,58.2,29.76,SSW,207,1.0,5.0,88,0.00,,,0.77,WeatherCatV1.15B25,2013-06-08 14:53:00,
2013-06-08 10:58:00,62.2,58.6,29.76,SSW,204,1.0,3.0,88,0.00,,,0.77,WeatherCatV1.15B25,2013-06-08 14:58:00,
2013-06-08 11:03:00,62.6,59.0,29.77,SSW,194,3.0,3.0,88,0.00,,,0.77,WeatherCatV1.15B25,2013-06-08 15:03:00,
2013-06-08 11:08:00,62.8,58.9,29.78,West,276,2.0,3.0,87,0.00,,,0.77,WeatherCatV1.15B25,2013-06-08 15:08:00,
2013-06-08 11:13:00,63.1,58.8,29.78,SW,229,1.0,5.0,86,0.00,,,0.77,WeatherCatV1.15B25,2013-06-08 15:13:00,
2013-06-08 11:18:00,63.2,59.3,29.79,South,188,1.0,5.0,87,0.00,,,0.77,WeatherCatV1.15B25,2013-06-08 15:18:00,
2013-06-08 11:23:00,63.5,59.2,29.79,West,259,2.0,3.0,86,0.00,,,0.77,WeatherCatV1.15B25,2013-06-08 15:23:00,
2013-06-08 11:28:00,64.1,59.2,29.80,SW,233,3.0,5.0,84,0.00,,,0.77,WeatherCatV1.15B25,2013-06-08 15:28:00,
2013-06-08 11:33:00,64.3,59.4,29.80,SSW,195,3.0,3.0,84,0.00,,,0.77,WeatherCatV1.15B25,2013-06-08 15:33:00,
2013-06-08 11:38:00,64.7,59.4,29.80,SSW,211,4.0,7.0,83,0.00,,,0.77,WeatherCatV1.15B25,2013-06-08 15:38:00,
2013-06-08 11:43:00,64.8,59.8,29.80,North,5,1.0,1.0,84,0.00,,,0.77,WeatherCatV1.15B25,2013-06-08 15:43:00,
2013-06-08 11:48:00,65.7,60.0,29.81,South,179,2.0,4.0,82,0.00,,,0.77,WeatherCatV1.15B25,2013-06-08 15:48:00,
2013-06-08 11:53:00,66.7,61.4,29.80,ENE,58,1.0,3.0,83,0.00,,,0.77,WeatherCatV1.15B25,2013-06-08 15:53:00,
2013-06-08 11:58:00,67.1,60.7,29.80,SW,233,1.0,5.0,80,0.00,,,0.77,WeatherCatV1.15B25,2013-06-08 15:58:00,
2013-06-08 12:03:00,67.6,60.8,29.81,SSW,210,2.0,6.0,79,0.00,,,0.77,WeatherCatV1.15B25,2013-06-08 16:03:00,
2013-06-08 12:08:00,68.2,61.4,29.81,WSW,250,1.0,3.0,79,0.00,,,0.77,WeatherCatV1.15B25,2013-06-08 16:08:00,
2013-06-08 12:13:00,69.0,61.5,29.80,NNW,347,4.0,5.0,77,0.00,,,0.77,WeatherCatV1.15B25,2013-06-08 16:13:00,
2013-06-08 12:18:00,69.5,61.2,29.80,SW,218,1.0,2.0,75,0.00,,,0.77,WeatherCatV1.15B25,2013-06-08 16:18:00,
2013-06-08 12:23:00,70.1,61.8,29.81,WSW,239,1.0,3.0,75,0.00,,,0.77,WeatherCatV1.15B25,2013-06-08 16:23:00,
2013-06-08 12:28:00,70.9,61.4,29.80,SSW,201,6.0,6.0,72,0.00,,,0.77,WeatherCatV1.15B25,2013-06-08 16:28:00,
2013-06-08 12:33:00,71.0,61.9,29.81,SW,235,1.0,3.0,73,0.00,,,0.77,WeatherCatV1.15B25,2013-06-08 16:33:00,
2013-06-08 12:38:00,71.3,62.2,29.81,SW,229,4.0,5.0,73,0.00,,,0.77,WeatherCatV1.15B25,2013-06-08 16:38:00,
2013-06-08 12:43:00,71.2,61.7,29.82,SSW,195,2.0,6.0,72,0.00,,,0.77,WeatherCatV1.15B25,2013-06-08 16:43:00,
2013-06-08 12:48:00,71.5,61.2,29.82,SSE,148,2.0,3.0,70,0.00,,,0.77,WeatherCatV1.15B25,2013-06-08 16:48:00,
2013-06-08 12:53:00,71.7,61.8,29.82,SSW,211,1.0,3.0,71,0.00,,,0.77,WeatherCatV1.15B25,2013-06-08 16:53:00,
2013-06-08 12:58:00,72.1,62.2,29.82,SW,221,4.0,4.0,71,0.00,,,0.77,WeatherCatV1.15B25,2013-06-08 16:58:00,
2013-06-08 13:03:00,72.9,61.3,29.82,SW,225,3.0,4.0,67,0.00,,,0.77,WeatherCatV1.15B25,2013-06-08 17:03:00,
2013-06-08 13:08:00,73.1,61.5,29.82,NW,321,3.0,4.0,67,0.00,,,0.77,WeatherCatV1.15B25,2013-06-08 17:08:00,
2013-06-08 13:13:00,72.7,61.1,29.82,SSE,151,0.0,3.0,67,0.00,,,0.77,WeatherCatV1.15B25,2013-06-08 17:13:00,
2013-06-08 13:18:00,72.9,60.9,29.82,North,353,4.0,6.0,66,0.00,,,0.77,WeatherCatV1.15B25,2013-06-08 17:18:00,
2013-06-08 13:23:00,73.9,62.7,29.82,WSW,253,0.0,5.0,68,0.00,,,0.77,WeatherCatV1.15B25,2013-06-08 17:23:00,
2013-06-08 13:28:00,74.8,61.8,29.82,SW,217,4.0,4.0,64,0.00,,,0.77,WeatherCatV1.15B25,2013-06-08 17:28:00,
2013-06-08 13:33:00,75.0,62.0,29.83,South,181,7.0,7.0,64,0.00,,,0.77,WeatherCatV1.15B25,2013-06-08 17:33:00,
2013-06-08 13:38:00,74.8,61.3,29.83,WSW,245,5.0,11.0,63,0.00,,,0.77,WeatherCatV1.15B25,2013-06-08 17:38:00,
2013-06-08 13:43:00,75.0,62.0,29.83,SW,222,2.0,4.0,64,0.00,,,0.77,WeatherCatV1.15B25,2013-06-08 17:43:00,
2013-06-08 13:48:00,75.7,61.7,29.82,WSW,249,0.0,4.0,62,0.00,,,0.77,WeatherCatV1.15B25,2013-06-08 17:48:00,
2013-06-08 13:53:00,76.1,62.6,29.83,NW,323,0.0,2.0,63,0.00,,,0.77,WeatherCatV1.15B25,2013-06-08 17:53:00,
2013-06-08 13:58:00,76.2,62.2,29.83,SW,232,2.0,4.0,62,0.00,,,0.77,WeatherCatV1.15B25,2013-06-08 17:58:00,
2013-06-08 14:03:00,76.6,62.1,29.83,SW,231,3.0,5.0,61,0.00,,,0.77,WeatherCatV1.15B25,2013-06-08 18:03:00,
2013-06-08 14:08:00,76.3,62.3,29.83,NE,34,3.0,5.0,62,0.00,,,0.77,WeatherCatV1.15B25,2013-06-08 18:08:00,
2013-06-08 14:13:00,76.7,63.1,29.83,SE,137,1.0,4.0,63,0.00,,,0.77,WeatherCatV1.15B25,2013-06-08 18:13:00,
2013-06-08 14:18:00,77.4,63.3,29.83,West,271,1.0,3.0,62,0.00,,,0.77,WeatherCatV1.15B25,2013-06-08 18:18:00,
2013-06-08 14:23:00,77.6,63.1,29.83,SW,218,1.0,7.0,61,0.00,,,0.77,WeatherCatV1.15B25,2013-06-08 18:23:00,
2013-06-08 14:28:00,77.9,62.9,29.84,SSE,160,1.0,3.0,60,0.00,,,0.77,WeatherCatV1.15B25,2013-06-08 18:28:00,
2013-06-08 14:33:00,78.2,62.7,29.83,SSE,158,2.0,6.0,59,0.00,,,0.77,WeatherCatV1.15B25,2013-06-08 18:33:00,
2013-06-08 14:38:00,78.3,63.2,29.83,SE,132,1.0,4.0,60,0.00,,,0.77,WeatherCatV1.15B25,2013-06-08 18:38:00,
2013-06-08 14:43:00,78.5,63.0,29.84,SW,221,4.0,7.0,59,0.00,,,0.77,WeatherCatV1.15B25,2013-06-08 18:43:00,
2013-06-08 14:48:00,78.5,63.0,29.84,West,264,0.0,6.0,59,0.00,,,0.77,WeatherCatV1.15B25,2013-06-08 18:48:00,
2013-06-08 14:53:00,78.3,62.8,29.83,WSW,250,0.0,6.0,59,0.00,,,0.77,WeatherCatV1.15B25,2013-06-08 18:53:00,
2013-06-08 14:58:00,78.1,62.6,29.84,NW,326,1.0,7.0,59,0.00,,,0.77,WeatherCatV1.15B25,2013-06-08 18:58:00,
2013-06-08 15:03:00,78.4,63.8,29.84,NNE,13,0.0,4.0,61,0.00,,,0.77,WeatherCatV1.15B25,2013-06-08 19:03:00,
2013-06-08 15:08:00,79.1,64.0,29.84,WSW,246,1.0,3.0,60,0.00,,,0.77,WeatherCatV1.15B25,2013-06-08 19:08:00,
2013-06-08 15:13:00,79.5,63.9,29.84,SSW,208,1.0,2.0,59,0.00,,,0.77,WeatherCatV1.15B25,2013-06-08 19:13:00,
2013-06-08 15:18:00,79.9,63.8,29.84,SW,219,1.0,3.0,58,0.00,,,0.77,WeatherCatV1.15B25,2013-06-08 19:18:00,
2013-06-08 15:23:00,79.7,63.1,29.84,WSW,248,0.0,2.0,57,0.00,,,0.77,WeatherCatV1.15B25,2013-06-08 19:23:00,
2013-06-08 15:28:00,79.4,63.3,29.84,SSW,200,2.0,4.0,58,0.00,,,0.77,WeatherCatV1.15B25,2013-06-08 19:28:00,
2013-06-08 15:33:00,79.3,63.2,29.84,SSE,162,2.0,2.0,58,0.00,,,0.77,WeatherCatV1.15B25,2013-06-08 19:33:00,
2013-06-08 15:38:00,78.7,63.1,29.85,SW,224,0.0,2.0,59,0.00,,,0.77,WeatherCatV1.15B25,2013-06-08 19:38:00,
2013-06-08 15:43:00,78.3,62.8,29.85,SSW,212,1.0,6.0,59,0.00,,,0.77,WeatherCatV1.15B25,2013-06-08 19:43:00,
2013-06-08 15:48:00,77.9,62.9,29.85,SW,225,1.0,4.0,60,0.00,,,0.77,WeatherCatV1.15B25,2013-06-08 19:48:00,
2013-06-08 15:53:00,78.1,63.1,29.85,SSW,197,2.0,4.0,60,0.00,,,0.77,WeatherCatV1.15B25,2013-06-08 19:53:00,
2013-06-08 15:58:00,78.9,63.8,29.85,SW,236,0.0,4.0,60,0.00,,,0.77,WeatherCatV1.15B25,2013-06-08 19:58:00,
2013-06-08 16:03:00,79.4,63.3,29.85,SE,133,1.0,4.0,58,0.00,,,0.77,WeatherCatV1.15B25,2013-06-08 20:03:00,
2013-06-08 16:08:00,80.1,64.0,29.85,SSW,203,1.0,5.0,58,0.00,,,0.77,WeatherCatV1.15B25,2013-06-08 20:08:00,
2013-06-08 16:13:00,80.6,63.4,29.85,WSW,256,0.0,2.0,56,0.00,,,0.77,WeatherCatV1.15B25,2013-06-08 20:13:00,
2013-06-08 16:18:00,81.1,63.4,29.85,SSW,200,2.0,4.0,55,0.00,,,0.77,WeatherCatV1.15B25,2013-06-08 20:18:00,
2013-06-08 16:23:00,81.2,64.0,29.85,SW,235,2.0,5.0,56,0.00,,,0.77,WeatherCatV1.15B25,2013-06-08 20:23:00,
2013-06-08 16:28:00,81.2,63.5,29.86,SSE,148,3.0,3.0,55,0.00,,,0.77,WeatherCatV1.15B25,2013-06-08 20:28:00,
2013-06-08 16:33:00,81.2,63.5,29.85,NNE,22,0.0,6.0,55,0.00,,,0.77,WeatherCatV1.15B25,2013-06-08 20:33:00,
2013-06-08 16:38:00,81.2,63.5,29.86,SSE,148,1.0,5.0,55,0.00,,,0.77,WeatherCatV1.15B25,2013-06-08 20:38:00,
2013-06-08 16:43:00,80.8,63.6,29.86,SSE,153,0.0,0.0,56,0.00,,,0.77,WeatherCatV1.15B25,2013-06-08 20:43:00,
2013-06-08 16:48:00,80.2,63.6,29.86,SW,225,2.0,2.0,57,0.00,,,0.77,WeatherCatV1.15B25,2013-06-08 20:48:00,
2013-06-08 16:53:00,79.4,63.8,29.86,ESE,106,1.0,2.0,59,0.00,,,0.77,WeatherCatV1.15B25,2013-06-08 20:53:00,
2013-06-08 16:58:00,79.0,63.9,29.86,SSE,164,0.0,4.0,60,0.00,,,0.77,WeatherCatV1.15B25,2013-06-08 20:58:00,
2013-06-08 17:03:00,79.0,64.4,29.86,SE,145,1.0,3.0,61,0.00,,,0.77,WeatherCatV1.15B25,2013-06-08 21:03:00,
2013-06-08 17:08:00,79.1,63.5,29.86,SW,217,0.0,5.0,59,0.00,,,0.77,WeatherCatV1.15B25,2013-06-08 21:08:00,
2013-06-08 17:13:00,79.4,63.8,29.86,NNE,16,1.0,1.0,59,0.00,,,0.77,WeatherCatV1.15B25,2013-06-08 21:13:00,
2013-06-08 17:18:00,79.4,63.8,29.86,ESE,107,0.0,1.0,59,0.00,,,0.77,WeatherCatV1.15B25,2013-06-08 21:18:00,
2013-06-08 17:23:00,79.2,63.6,29.87,South,172,4.0,5.0,59,0.00,,,0.77,WeatherCatV1.15B25,2013-06-08 21:23:00,
2013-06-08 17:28:00,79.1,64.0,29.87,SSW,200,0.0,3.0,60,0.00,,,0.77,WeatherCatV1.15B25,2013-06-08 21:28:00,
2013-06-08 17:33:00,78.7,62.2,29.87,NNE,25,0.0,4.0,57,0.00,,,0.77,WeatherCatV1.15B25,2013-06-08 21:33:00,
2013-06-08 17:38:00,78.6,62.6,29.88,SSW,195,0.0,0.0,58,0.00,,,0.77,WeatherCatV1.15B25,2013-06-08 21:38:00,
2013-06-08 17:43:00,78.6,63.5,29.88,SSW,210,2.0,5.0,60,0.00,,,0.77,WeatherCatV1.15B25,2013-06-08 21:43:00,
2013-06-08 17:48:00,78.0,62.5,29.88,SSW,207,1.0,9.0,59,0.00,,,0.77,WeatherCatV1.15B25,2013-06-08 21:48:00,
2013-06-08 17:53:00,77.5,63.0,29.88,SSW,210,0.0,1.0,61,0.00,,,0.77,WeatherCatV1.15B25,2013-06-08 21:53:00,
2013-06-08 17:58:00,77.3,62.8,29.88,SSW,200,3.0,3.0,61,0.00,,,0.77,WeatherCatV1.15B25,2013-06-08 21:58:00,
2013-06-08 18:03:00,77.0,62.0,29.88,SE,124,0.0,4.0,60,0.00,,,0.77,WeatherCatV1.15B25,2013-06-08 22:03:00,
2013-06-08 18:08:00,76.8,62.3,29.89,SSW,207,3.0,6.0,61,0.00,,,0.77,WeatherCatV1.15B25,2013-06-08 22:08:00,
2013-06-08 18:13:00,76.7,63.1,29.89,SSW,203,1.0,3.0,63,0.00,,,0.77,WeatherCatV1.15B25,2013-06-08 22:13:00,
2013-06-08 18:18:00,76.4,62.4,29.91,SSW,198,2.0,10.0,62,0.00,,,0.77,WeatherCatV1.15B25,2013-06-08 22:18:00,
2013-06-08 18:23:00,76.1,62.1,29.90,NW,315,3.0,12.0,62,0.00,,,0.77,WeatherCatV1.15B25,2013-06-08 22:23:00,
2013-06-08 18:28:00,75.8,62.3,29.90,SW,221,1.0,2.0,63,0.00,,,0.77,WeatherCatV1.15B25,2013-06-08 22:28:00,
2013-06-08 18:33:00,75.5,62.0,29.90,SW,214,1.0,5.0,63,0.00,,,0.77,WeatherCatV1.15B25,2013-06-08 22:33:00,
2013-06-08 18:38:00,75.2,61.7,29.91,SE,134,1.0,5.0,63,0.00,,,0.77,WeatherCatV1.15B25,2013-06-08 22:38:00,
2013-06-08 18:43:00,75.0,62.0,29.91,SW,236,0.0,1.0,64,0.00,,,0.77,WeatherCatV1.15B25,2013-06-08 22:43:00,
2013-06-08 18:48:00,74.9,61.9,29.91,WNW,301,0.0,5.0,64,0.00,,,0.77,WeatherCatV1.15B25,2013-06-08 22:48:00,
2013-06-08 18:53:00,74.7,61.7,29.91,WSW,250,2.0,4.0,64,0.00,,,0.77,WeatherCatV1.15B25,2013-06-08 22:53:00,
2013-06-08 18:58:00,74.4,61.4,29.91,SW,228,1.0,2.0,64,0.00,,,0.77,WeatherCatV1.15B25,2013-06-08 22:58:00,
2013-06-08 19:03:00,74.2,61.2,29.92,SW,235,0.0,4.0,64,0.00,,,0.77,WeatherCatV1.15B25,2013-06-08 23:03:00,
2013-06-08 19:08:00,73.8,60.8,29.92,WNW,295,3.0,4.0,64,0.00,,,0.77,WeatherCatV1.15B25,2013-06-08 23:08:00,
2013-06-08 19:13:00,73.5,60.6,29.93,SW,232,0.0,5.0,64,0.00,,,0.77,WeatherCatV1.15B25,2013-06-08 23:13:00,
2013-06-08 19:18:00,73.2,59.8,29.93,WNW,293,1.0,6.0,63,0.00,,,0.77,WeatherCatV1.15B25,2013-06-08 23:18:00,
2013-06-08 19:23:00,73.0,60.1,29.93,WSW,242,0.0,6.0,64,0.00,,,0.77,WeatherCatV1.15B25,2013-06-08 23:23:00,
2013-06-08 19:28:00,72.8,59.9,29.94,SW,215,0.0,1.0,64,0.00,,,0.77,WeatherCatV1.15B25,2013-06-08 23:28:00,
2013-06-08 19:33:00,72.5,59.6,29.94,SW,235,2.0,2.0,64,0.00,,,0.77,WeatherCatV1.15B25,2013-06-08 23:33:00,
2013-06-08 19:38:00,72.2,59.8,29.94,NE,44,4.0,4.0,65,0.00,,,0.77,WeatherCatV1.15B25,2013-06-08 23:38:00,
2013-06-08 19:43:00,72.0,59.6,29.94,SSE,158,1.0,1.0,65,0.00,,,0.77,WeatherCatV1.15B25,2013-06-08 23:43:00,
2013-06-08 19:48:00,71.7,59.7,29.94,SSW,206,0.0,2.0,66,0.00,,,0.77,WeatherCatV1.15B25,2013-06-08 23:48:00,
2013-06-08 19:53:00,71.5,60.0,29.94,South,169,0.0,0.0,67,0.00,,,0.77,WeatherCatV1.15B25,2013-06-08 23:53:00,
2013-06-08 19:58:00,71.3,59.3,29.94,SSW,197,3.0,4.0,66,0.00,,,0.77,WeatherCatV1.15B25,2013-06-08 23:58:00,
2013-06-08 20:03:00,71.1,59.6,29.94,NNE,30,2.0,2.0,67,0.00,,,0.77,WeatherCatV1.15B25,2013-06-09 00:03:00,
2013-06-08 20:08:00,70.9,59.4,29.94,West,274,0.0,1.0,67,0.00,,,0.77,WeatherCatV1.15B25,2013-06-09 00:08:00,
2013-06-08 20:13:00,70.7,58.8,29.94,SSW,208,0.0,0.0,66,0.00,,,0.77,WeatherCatV1.15B25,2013-06-09 00:13:00,
2013-06-08 20:18:00,70.5,58.6,29.94,SSW,211,0.0,1.0,66,0.00,,,0.77,WeatherCatV1.15B25,2013-06-09 00:18:00,
2013-06-08 20:23:00,70.3,58.8,29.95,SW,226,1.0,2.0,67,0.00,,,0.77,WeatherCatV1.15B25,2013-06-09 00:23:00,
2013-06-08 20:28:00,69.9,58.8,29.94,SW,227,0.0,2.0,68,0.00,,,0.77,WeatherCatV1.15B25,2013-06-09 00:28:00,
2013-06-08 20:33:00,69.6,58.6,29.95,SSE,152,0.0,0.0,68,0.00,,,0.77,WeatherCatV1.15B25,2013-06-09 00:33:00,
2013-06-08 20:38:00,69.3,58.7,29.95,SW,221,1.0,1.0,69,0.00,,,0.77,WeatherCatV1.15B25,2013-06-09 00:38:00,
2013-06-08 20:43:00,68.9,58.7,29.96,South,181,0.0,0.0,70,0.00,,,0.77,WeatherCatV1.15B25,2013-06-09 00:43:00,
2013-06-08 20:48:00,68.5,58.7,29.96,South,181,0.0,0.0,71,0.00,,,0.77,WeatherCatV1.15B25,2013-06-09 00:48:00,
2013-06-08 20:53:00,68.1,58.7,29.96,South,173,0.0,0.0,72,0.00,,,0.77,WeatherCatV1.15B25,2013-06-09 00:53:00,
2013-06-08 20:58:00,67.7,58.7,29.96,ENE,63,0.0,0.0,73,0.00,,,0.77,WeatherCatV1.15B25,2013-06-09 00:58:00,
2013-06-08 21:03:00,67.3,59.1,29.96,ENE,65,0.0,0.0,75,0.00,,,0.77,WeatherCatV1.15B25,2013-06-09 01:03:00,
2013-06-08 21:08:00,66.9,58.7,29.97,ENE,65,0.0,0.0,75,0.00,,,0.77,WeatherCatV1.15B25,2013-06-09 01:08:00,
2013-06-08 21:13:00,66.6,58.8,29.97,ENE,65,0.0,1.0,76,0.00,,,0.77,WeatherCatV1.15B25,2013-06-09 01:13:00,
2013-06-08 21:18:00,66.2,58.8,29.97,ENE,65,0.0,0.0,77,0.00,,,0.77,WeatherCatV1.15B25,2013-06-09 01:18:00,
2013-06-08 21:23:00,65.9,58.8,29.97,SSW,205,0.0,0.0,78,0.00,,,0.77,WeatherCatV1.15B25,2013-06-09 01:23:00,
2013-06-08 21:28:00,65.6,58.9,29.98,SSW,201,0.0,0.0,79,0.00,,,0.77,WeatherCatV1.15B25,2013-06-09 01:28:00,
2013-06-08 21:33:00,65.4,58.7,29.98,SSW,201,0.0,0.0,79,0.00,,,0.77,WeatherCatV1.15B25,2013-06-09 01:33:00,
2013-06-08 21:38:00,65.2,58.9,29.98,SSW,201,0.0,0.0,80,0.00,,,0.77,WeatherCatV1.15B25,2013-06-09 01:38:00,
2013-06-08 21:43:00,65.0,58.7,29.98,SSW,201,0.0,0.0,80,0.00,,,0.77,WeatherCatV1.15B25,2013-06-09 01:43:00,
2013-06-08 21:48:00,64.7,58.4,29.98,SSW,201,0.0,0.0,80,0.00,,,0.77,WeatherCatV1.15B25,2013-06-09 01:48:00,
2013-06-08 21:53:00,64.4,58.4,29.99,SSW,201,0.0,0.0,81,0.00,,,0.77,WeatherCatV1.15B25,2013-06-09 01:53:00,
2013-06-08 21:58:00,64.1,58.8,29.99,SSW,201,0.0,0.0,83,0.00,,,0.77,WeatherCatV1.15B25,2013-06-09 01:58:00,
2013-06-08 22:04:00,63.8,58.5,29.99,SSW,201,0.0,0.0,83,0.00,,,0.77,WeatherCatV1.15B25,2013-06-09 02:04:00,
2013-06-08 22:09:00,63.5,58.6,29.99,SSW,201,0.0,0.0,84,0.00,,,0.77,WeatherCatV1.15B25,2013-06-09 02:09:00,
2013-06-08 22:14:00,63.2,58.6,29.99,SSW,201,0.0,0.0,85,0.00,,,0.77,WeatherCatV1.15B25,2013-06-09 02:14:00,
2013-06-08 22:19:00,62.8,58.2,29.99,SSW,201,0.0,0.0,85,0.00,,,0.77,WeatherCatV1.15B25,2013-06-09 02:19:00,
2013-06-08 22:24:00,62.5,58.2,29.99,SSW,201,0.0,0.0,86,0.00,,,0.77,WeatherCatV1.15B25,2013-06-09 02:24:00,
2013-06-08 22:29:00,62.2,58.3,29.99,SSW,201,0.0,0.0,87,0.00,,,0.77,WeatherCatV1.15B25,2013-06-09 02:29:00,
2013-06-08 22:34:00,61.9,58.3,29.99,SSW,201,0.0,0.0,88,0.00,,,0.77,WeatherCatV1.15B25,2013-06-09 02:34:00,
2013-06-08 22:39:00,61.6,58.0,29.99,SSW,201,0.0,0.0,88,0.00,,,0.77,WeatherCatV1.15B25,2013-06-09 02:39:00,
2013-06-08 22:44:00,61.3,58.0,30.00,SSW,201,0.0,0.0,89,0.00,,,0.77,WeatherCatV1.15B25,2013-06-09 02:44:00,
2013-06-08 22:49:00,61.0,57.7,30.00,SSW,201,0.0,0.0,89,0.00,,,0.77,WeatherCatV1.15B25,2013-06-09 02:49:00,
2013-06-08 22:54:00,60.8,57.8,30.00,SSW,201,0.0,0.0,90,0.00,,,0.77,WeatherCatV1.15B25,2013-06-09 02:54:00,
2013-06-08 22:59:00,60.5,57.5,30.00,SSW,201,0.0,0.0,90,0.00,,,0.77,WeatherCatV1.15B25,2013-06-09 02:59:00,
2013-06-08 23:04:00,60.4,57.8,30.01,SSW,201,0.0,0.0,91,0.00,,,0.77,WeatherCatV1.15B25,2013-06-09 03:04:00,
2013-06-08 23:09:00,60.2,57.6,30.00,SSW,201,0.0,0.0,91,0.00,,,0.77,WeatherCatV1.15B25,2013-06-09 03:09:00,
2013-06-08 23:14:00,60.0,57.7,30.00,SSW,201,0.0,0.0,92,0.00,,,0.77,WeatherCatV1.15B25,2013-06-09 03:14:00,
2013-06-08 23:19:00,59.9,57.6,30.00,SSW,201,0.0,0.0,92,0.00,,,0.77,WeatherCatV1.15B25,2013-06-09 03:19:00,
2013-06-08 23:24:00,59.7,57.4,30.01,SSW,201,0.0,0.0,92,0.00,,,0.77,WeatherCatV1.15B25,2013-06-09 03:24:00,
2013-06-08 23:29:00,59.6,57.3,30.01,SSW,201,0.0,0.0,92,0.00,,,0.77,WeatherCatV1.15B25,2013-06-09 03:29:00,
2013-06-08 23:34:00,59.5,57.5,30.01,SSW,201,0.0,0.0,93,0.00,,,0.77,WeatherCatV1.15B25,2013-06-09 03:34:00,
2013-06-08 23:39:00,59.3,57.3,30.01,SSW,201,0.0,0.0,93,0.00,,,0.77,WeatherCatV1.15B25,2013-06-09 03:39:00,
2013-06-08 23:44:00,59.3,57.3,30.01,SSW,201,0.0,0.0,93,0.00,,,0.77,WeatherCatV1.15B25,2013-06-09 03:44:00,
2013-06-08 23:49:00,59.2,57.2,30.02,SSW,201,0.0,0.0,93,0.00,,,0.77,WeatherCatV1.15B25,2013-06-09 03:49:00,
2013-06-08 23:54:00,59.1,57.4,30.01,SSW,201,0.0,0.0,94,0.00,,,0.77,WeatherCatV1.15B25,2013-06-09 03:54:00,
2013-06-08 23:59:00,59.0,57.3,30.02,SSW,201,0.0,0.0,94,0.00,,,0.77,WeatherCatV1.15B25,2013-06-09 03:59:00,